Location: *
(35.1500°N, 76.6700°W)
Time: 13:37:48
(UTC+00:00)

Shenzhou-11 Module - Pass Details

Date: 13 October 2019
Orbit: 311 x 323 km, 42.8° (Epoch: 13 November)

Event Time Altitude Azimuth Distance (km) Brightness Sun altitude
Rises 23:26:52 0° 261° (W) 2,066 7.8 -11.5°
Reaches altitude 10° 23:28:57 10° 270° (W) 1,231 6.2 -11.9°
Maximum altitude 23:31:32 35° 339° (NNW) 536 2.9 -12.4°
Enters shadow 23:33:16 17° 40° (NE) 913 3.6 -12.8°
